14-11-2022, 00:00:03,    162,    0.0,    7.7,   0.00,   0.00, 1009.7,    0.0, -999.0
14-11-2022, 00:00:13,    162,    0.0,    7.6,   0.00,   0.00, 1009.7,    0.0, -999.0
14-11-2022, 00:00:23,    162,    0.0,    7.6,   0.00,   0.00, 1009.6,    0.0, -999.0
14-11-2022, 00:00:33,    162,    0.0,    7.6,   0.00,   0.00, 1009.6,    0.0, -999.0
14-11-2022, 00:00:43,    162,    0.0,    7.6,   0.00,   0.00, 1009.7,    0.0, -999.0
14-11-2022, 00:00:53,    162,    0.0,    7.6,   0.00,   0.00, 1009.6,    0.0, -999.0
14-11-2022, 00:01:03,    162,    0.0,    7.6,   0.00,   0.00, 1009.6,    0.1, -999.0
14-11-2022, 00:01:13,    162,    0.0,    7.6,   0.00,   0.00, 1009.6,    0.0, -999.0
14-11-2022, 00:01:23,    162,    0.0,    7.6,   0.00,   0.00, 1009.6,    0.1, -999.0
14-11-2022, 00:01:33,    162,    0.0,    7.5,   0.00,   0.00, 1009.6,    0.1, -999.0
14-11-2022, 00:01:43,    162,    0.0,    7.5,   0.00,   0.00, 1009.6,    0.0, -999.0
14-11-2022, 00:01:53,    162,    0.0,    7.5,   0.00,   0.00, 1009.6,    0.0, -999.0
14-11-2022, 00:02:03,    162,    0.0,    7.5,   0.00,   0.00, 1009.6,    0.0, -999.0
14-11-2022, 00:02:13,    162,    0.0,    7.5,   0.00,   0.00, 1009.6,    0.1, -999.0
14-11-2022, 00:02:23,    162,    0.0,    7.6,   0.00,   0.00, 1009.6,    0.0, -999.0
14-11-2022, 00:02:33,    162,    0.0,    7.7,   0.00,   0.00, 1009.6,    0.0, -999.0
14-11-2022, 00:02:43,    162,    0.0,    7.5,   0.00,   0.00, 1009.6,    0.0, -999.0
14-11-2022, 00:02:52,    162,    0.0,    7.5,   0.00,   0.00, 1009.6,    0.0, -999.0
14-11-2022, 00:03:03,    162,    0.0,    7.5,   0.00,   0.00, 1009.6,    0.0, -999.0
14-11-2022, 00:03:13,    162,    0.0,    7.6,   0.00,   0.00, 1009.6,    0.0, -999.0
14-11-2022, 00:03:22,    162,    0.0,    7.6,   0.00,   0.00, 1009.6,    0.0, -999.0
14-11-2022, 00:03:32,    162,    0.0,    7.6,   0.00,   0.00, 1009.6,    0.0, -999.0
14-11-2022, 00:03:43,    162,    0.0,    7.5,   0.00,   0.00, 1009.6,    0.1, -999.0
14-11-2022, 00:03:52,    162,    0.0,    7.5,   0.00,   0.00, 1009.6,    0.0, -999.0
14-11-2022, 00:04:02,    162,    0.0,    7.5,   0.00,   0.00, 1009.6,    0.0, -999.0
14-11-2022, 00:04:13,    162,    0.0,    7.6,   0.00,   0.00, 1009.6,    0.1, -999.0
14-11-2022, 00:04:22,    162,    0.0,    7.7,   0.00,   0.00, 1009.6,    0.0, -999.0
14-11-2022, 00:04:32,    162,    0.0,    7.7,   0.00,   0.00, 1009.6,    0.0, -999.0
14-11-2022, 00:04:42,    162,    0.0,    7.7,   0.00,   0.00, 1009.6,    0.0, -999.0
14-11-2022, 00:04:53,    162,    0.0,    7.7,   0.00,   0.00, 1009.6,    0.1, -999.0
14-11-2022, 00:05:02,    162,    0.0,    7.7,   0.00,   0.00, 1009.6,    0.0, -999.0
14-11-2022, 00:05:12,    162,    0.0,    7.7,   0.00,   0.00, 1009.6,    0.0, -999.0
14-11-2022, 00:05:22,    162,    0.0,    7.7,   0.00,   0.00, 1009.6,    0.1, -999.0
14-11-2022, 00:05:32,    162,    0.0,    7.7,   0.00,   0.00, 1009.6,    0.0, -999.0
14-11-2022, 00:05:42,    162,    0.0,    7.8,   0.00,   0.00, 1009.6,    0.2, -999.0
14-11-2022, 00:05:52,    162,    0.0,    7.7,   0.00,   0.00, 1009.6,    0.0, -999.0
14-11-2022, 00:06:02,    162,    0.0,    7.8,   0.00,   0.00, 1009.5,    0.1, -999.0
14-11-2022, 00:06:12,    162,    0.0,    7.8,   0.00,   0.00, 1009.5,    0.0, -999.0
14-11-2022, 00:06:22,    162,    0.0,    7.9,   0.00,   0.00, 1009.6,    0.0, -999.0
14-11-2022, 00:06:32,    162,    0.0,    7.9,   0.00,   0.00, 1009.5,    0.1, -999.0
14-11-2022, 00:06:42,    162,    0.0,    7.7,   0.00,   0.00, 1009.5,    0.0, -999.0
14-11-2022, 00:06:52,    162,    0.0,    7.8,   0.00,   0.00, 1009.5,    0.0, -999.0
14-11-2022, 00:07:02,    162,    0.0,    7.9,   0.00,   0.00, 1009.5,    0.1, -999.0
14-11-2022, 00:07:12,    162,    0.0,    7.9,   0.00,   0.00, 1009.5,    0.0, -999.0
14-11-2022, 00:07:22,    162,    0.0,    7.9,   0.00,   0.00, 1009.5,    0.1, -999.0
14-11-2022, 00:07:32,    162,    0.0,    7.9,   0.00,   0.00, 1009.5,    0.0, -999.0
14-11-2022, 00:07:42,    162,    0.0,    7.8,   0.00,   0.00, 1009.5,    0.0, -999.0
14-11-2022, 00:07:52,    157,    0.0,    7.9,   0.00,   0.00, 1009.5,    0.0, -999.0
14-11-2022, 00:08:01,    162,    0.0,    7.9,   0.00,   0.00, 1009.5,    0.0, -999.0
14-11-2022, 00:08:12,    162,    0.0,    8.0,   0.00,   0.00, 1009.5,    0.0, -999.0
14-11-2022, 00:08:22,    162,    0.0,    8.0,   0.00,   0.00, 1009.6,    0.0, -999.0
14-11-2022, 00:08:31,    162,    0.0,    8.0,   0.00,   0.00, 1009.5,    0.0, -999.0
14-11-2022, 00:08:41,    162,    0.0,    8.1,   0.00,   0.00, 1009.5,    0.0, -999.0
14-11-2022, 00:08:52,    162,    0.0,    8.1,   0.00,   0.00, 1009.5,    0.0, -999.0
14-11-2022, 00:09:02,    162,    0.0,    8.2,   0.00,   0.00, 1009.5,    0.0, -999.0
14-11-2022, 00:09:11,    162,    0.0,    8.2,   0.00,   0.00, 1009.5,    0.0, -999.0
14-11-2022, 00:09:21,    162,    0.0,    8.2,   0.00,   0.00, 1009.5,    0.0, -999.0
14-11-2022, 00:09:32,    162,    0.0,    8.2,   0.00,   0.00, 1009.5,    0.0, -999.0
14-11-2022, 00:09:41,    162,    0.0,    8.2,   0.00,   0.00, 1009.5,    0.0, -999.0
14-11-2022, 00:09:51,    162,    0.0,    8.2,   0.00,   0.00, 1009.5,    0.0, -999.0
14-11-2022, 00:10:02,    162,    0.0,    8.2,   0.00,   0.00, 1009.5,    0.0, -999.0
14-11-2022, 00:10:11,    162,    0.0,    8.2,   0.00,   0.00, 1009.5,    0.0, -999.0
14-11-2022, 00:10:21,    162,    0.0,    8.2,   0.00,   0.00, 1009.5,    0.0, -999.0
14-11-2022, 00:10:31,    162,    0.0,    8.1,   0.00,   0.00, 1009.5,    0.0, -999.0
14-11-2022, 00:10:41,    162,    0.0,    8.1,   0.00,   0.00, 1009.6,    0.0, -999.0
14-11-2022, 00:10:51,    162,    0.0,    8.1,   0.00,   0.00, 1009.6,    0.0, -999.0
14-11-2022, 00:11:01,    162,    0.0,    8.1,   0.00,   0.00, 1009.5,    0.1, -999.0
14-11-2022, 00:11:11,    162,    0.0,    8.1,   0.00,   0.00, 1009.5,    0.1, -999.0
14-11-2022, 00:11:21,    162,    0.0,    8.0,   0.00,   0.00, 1009.5,    0.0, -999.0
14-11-2022, 00:11:31,    162,    0.0,    8.0,   0.00,   0.00, 1009.5,    0.0, -999.0
14-11-2022, 00:11:41,    162,    0.0,    8.1,   0.00,   0.00, 1009.5,    0.0, -999.0
14-11-2022, 00:11:51,    162,    0.0,    8.0,   0.00,   0.00, 1009.5,    0.0, -999.0
14-11-2022, 00:12:01,    162,    0.0,    7.9,   0.00,   0.00, 1009.5,    0.0, -999.0
14-11-2022, 00:12:11,    162,    0.0,    8.0,   0.00,   0.00, 1009.5,    0.0, -999.0
14-11-2022, 00:12:21,    162,    0.0,    8.0,   0.00,   0.00, 1009.4,    0.0, -999.0
14-11-2022, 00:12:31,    162,    0.0,    7.9,   0.00,   0.00, 1009.5,    0.0, -999.0
14-11-2022, 00:12:41,    162,    0.0,    8.0,   0.00,   0.00, 1009.5,    0.0, -999.0
14-11-2022, 00:12:51,    162,    0.0,    8.0,   0.00,   0.00, 1009.5,    0.1, -999.0
14-11-2022, 00:13:01,    162,    0.0,    8.0,   0.00,   0.00, 1009.5,    0.0, -999.0
14-11-2022, 00:13:10,    162,    0.0,    8.0,   0.00,   0.00, 1009.5,    0.2, -999.0
14-11-2022, 00:13:21,    162,    0.0,    8.0,   0.00,   0.00, 1009.5,    0.0, -999.0
14-11-2022, 00:13:31,    162,    0.0,    8.1,   0.00,   0.00, 1009.4,    0.0, -999.0
14-11-2022, 00:13:41,    162,    0.0,    8.0,   0.00,   0.00, 1009.5,    0.1, -999.0
14-11-2022, 00:13:50,    163,    0.0,    8.0,   0.00,   0.00, 1009.5,    0.0, -999.0
14-11-2022, 00:14:01,    162,    0.0,    8.0,   0.00,   0.00, 1009.4,    0.0, -999.0
14-11-2022, 00:14:11,    162,    0.0,    8.0,   0.00,   0.00, 1009.4,    0.1, -999.0
14-11-2022, 00:14:20,    162,    0.0,    8.0,   0.00,   0.00, 1009.5,    0.0, -999.0
14-11-2022, 00:14:31,    162,    0.0,    8.1,   0.00,   0.00, 1009.5,    0.0, -999.0
14-11-2022, 00:14:41,    162,    0.0,    8.0,   0.00,   0.00, 1009.5,    0.0, -999.0
14-11-2022, 00:14:50,    162,    0.0,    8.1,   0.00,   0.00, 1009.5,    0.0, -999.0
14-11-2022, 00:15:00,    162,    0.0,    8.0,   0.00,   0.00, 1009.5,    0.0, -999.0
14-11-2022, 00:15:11,    162,    0.0,    8.0,   0.00,   0.00, 1009.4,    0.0, -999.0
14-11-2022, 00:15:20,    162,    0.0,    8.0,   0.00,   0.00, 1009.5,    0.0, -999.0
14-11-2022, 00:15:30,    162,    0.0,    8.0,   0.00,   0.00, 1009.5,    0.0, -999.0
14-11-2022, 00:15:40,    162,    0.0,    8.0,   0.00,   0.00, 1009.4,    0.1, -999.0
14-11-2022, 00:15:50,    162,    0.0,    8.0,   0.00,   0.00, 1009.5,    0.0, -999.0
14-11-2022, 00:16:00,    162,    0.0,    8.0,   0.00,   0.00, 1009.5,    0.0, -999.0
14-11-2022, 00:16:10,    162,    0.0,    8.0,   0.00,   0.00, 1009.5,    0.2, -999.0
14-11-2022, 00:16:20,    162,    0.0,    8.0,   0.00,   0.00, 1009.5,    0.1, -999.0
14-11-2022, 00:16:30,    162,    0.0,    8.0,   0.00,   0.00, 1009.5,    0.0, -999.0
14-11-2022, 00:16:40,    162,    0.0,    8.0,   0.00,   0.00, 1009.5,    0.0, -999.0
14-11-2022, 00:16:50,    162,    0.0,    8.0,   0.00,   0.00, 1009.5,    0.0, -999.0
14-11-2022, 00:17:00,    162,    0.0,    8.1,   0.00,   0.00, 1009.5,    0.0, -999.0
14-11-2022, 00:17:10,    162,    0.0,    8.0,   0.00,   0.00, 1009.5,    0.1, -999.0
14-11-2022, 00:17:20,    162,    0.0,    8.1,   0.00,   0.00, 1009.5,    0.0, -999.0
14-11-2022, 00:17:30,    162,    0.0,    8.0,   0.00,   0.00, 1009.4,    0.2, -999.0
14-11-2022, 00:17:40,    162,    0.0,    8.0,   0.00,   0.00, 1009.5,    0.1, -999.0
14-11-2022, 00:17:50,    162,    0.0,    8.0,   0.00,   0.00, 1009.5,    0.0, -999.0
14-11-2022, 00:18:00,    162,    0.0,    8.0,   0.00,   0.00, 1009.4,    0.0, -999.0
14-11-2022, 00:18:10,    162,    0.0,    7.9,   0.00,   0.00, 1009.5,    0.0, -999.0
14-11-2022, 00:18:20,    162,    0.0,    8.0,   0.00,   0.00, 1009.5,    0.0, -999.0
14-11-2022, 00:18:30,    162,    0.0,    8.0,   0.00,   0.00, 1009.5,    0.0, -999.0
14-11-2022, 00:18:40,    162,    0.0,    7.9,   0.00,   0.00, 1009.5,    0.1, -999.0
14-11-2022, 00:18:50,    162,    0.0,    7.9,   0.00,   0.00, 1009.4,    0.0, -999.0
14-11-2022, 00:18:59,    162,    0.0,    8.0,   0.00,   0.00, 1009.5,    0.1, -999.0
14-11-2022, 00:19:10,    162,    0.0,    8.0,   0.00,   0.00, 1009.4,    0.0, -999.0
14-11-2022, 00:19:20,    162,    0.0,    8.0,   0.00,   0.00, 1009.5,    0.0, -999.0
14-11-2022, 00:19:29,    161,    0.0,    8.0,   0.00,   0.00, 1009.4,    0.0, -999.0
14-11-2022, 00:19:39,    162,    0.0,    8.1,   0.00,   0.00, 1009.5,    0.0, -999.0
14-11-2022, 00:19:50,    162,    0.0,    8.2,   0.00,   0.00, 1009.5,    0.0, -999.0
14-11-2022, 00:19:59,    162,    0.0,    8.2,   0.00,   0.00, 1009.5,    0.1, -999.0
14-11-2022, 00:20:09,    162,    0.0,    8.2,   0.00,   0.00, 1009.4,    0.0, -999.0
14-11-2022, 00:20:19,    162,    0.0,    8.2,   0.00,   0.00, 1009.4,    0.0, -999.0
14-11-2022, 00:20:29,    162,    0.0,    8.2,   0.00,   0.00, 1009.4,    0.0, -999.0
14-11-2022, 00:20:39,    162,    0.0,    8.3,   0.00,   0.00, 1009.4,    0.0, -999.0
14-11-2022, 00:20:49,    162,    0.0,    8.3,   0.00,   0.00, 1009.4,    0.0, -999.0
14-11-2022, 00:20:59,    162,    0.0,    8.3,   0.00,   0.00, 1009.4,    0.0, -999.0
14-11-2022, 00:21:09,    164,    0.0,    8.2,   0.00,   0.00, 1009.4,    0.0, -999.0
14-11-2022, 00:21:19,    162,    0.0,    8.3,   0.00,   0.00, 1009.4,    0.0, -999.0
14-11-2022, 00:21:29,    162,    0.0,    8.4,   0.00,   0.00, 1009.4,    0.0, -999.0
14-11-2022, 00:21:39,    162,    0.0,    8.3,   0.00,   0.00, 1009.4,    0.1, -999.0
14-11-2022, 00:21:51,    162,    0.0,    8.3,   0.00,   0.00, 1009.4,    0.0, -999.0
14-11-2022, 00:21:59,    162,    0.0,    8.4,   0.00,   0.00, 1009.4,    0.0, -999.0
14-11-2022, 00:22:09,    162,    0.0,    8.3,   0.00,   0.00, 1009.4,    0.0, -999.0
14-11-2022, 00:22:19,    162,    0.0,    8.3,   0.00,   0.00, 1009.4,    0.1, -999.0
14-11-2022, 00:22:29,    162,    0.0,    8.3,   0.00,   0.00, 1009.4,    0.0, -999.0
14-11-2022, 00:22:39,    162,    0.0,    8.3,   0.00,   0.00, 1009.4,    0.0, -999.0
14-11-2022, 00:22:49,    162,    0.0,    8.4,   0.00,   0.00, 1009.4,    0.0, -999.0
14-11-2022, 00:22:59,    162,    0.0,    8.4,   0.00,   0.00, 1009.4,    0.0, -999.0
14-11-2022, 00:23:09,    162,    0.0,    8.5,   0.00,   0.00, 1009.4,    0.0, -999.0
14-11-2022, 00:23:19,    162,    0.0,    8.4,   0.00,   0.00, 1009.4,    0.0, -999.0
14-11-2022, 00:23:29,    162,    0.0,    8.4,   0.00,   0.00, 1009.4,    0.0, -999.0
14-11-2022, 00:23:41,    162,    0.0,    8.4,   0.00,   0.00, 1009.4,    0.1, -999.0
14-11-2022, 00:23:49,    162,    0.0,    8.3,   0.00,   0.00, 1009.4,    0.2, -999.0
14-11-2022, 00:23:59,    162,    0.0,    8.2,   0.00,   0.00, 1009.4,    0.1, -999.0
14-11-2022, 00:24:08,    162,    0.0,    8.2,   0.00,   0.00, 1009.4,    0.0, -999.0
14-11-2022, 00:24:19,    162,    0.0,    8.2,   0.00,   0.00, 1009.4,    0.0, -999.0
14-11-2022, 00:24:29,    162,    0.0,    8.3,   0.00,   0.00, 1009.4,    0.0, -999.0
14-11-2022, 00:24:38,    162,    0.0,    8.2,   0.00,   0.00, 1009.4,    0.1, -999.0
14-11-2022, 00:24:48,    162,    0.0,    8.2,   0.00,   0.00, 1009.4,    0.0, -999.0
14-11-2022, 00:24:59,    162,    0.0,    8.1,   0.00,   0.00, 1009.4,    0.0, -999.0
14-11-2022, 00:25:08,    162,    0.0,    8.0,   0.00,   0.00, 1009.4,    0.0, -999.0
14-11-2022, 00:25:18,    162,    0.0,    8.0,   0.00,   0.00, 1009.4,    0.1, -999.0
14-11-2022, 00:25:29,    162,    0.0,    7.9,   0.00,   0.00, 1009.4,    0.1, -999.0
14-11-2022, 00:25:38,    162,    0.0,    7.8,   0.00,   0.00, 1009.4,    0.0, -999.0
14-11-2022, 00:25:48,    162,    0.0,    7.7,   0.00,   0.00, 1009.4,    0.0, -999.0
14-11-2022, 00:25:58,    162,    0.0,    7.6,   0.00,   0.00, 1009.4,    0.0, -999.0
14-11-2022, 00:26:09,    162,    0.0,    7.5,   0.00,   0.00, 1009.4,    0.1, -999.0
14-11-2022, 00:26:18,    162,    0.0,    7.4,   0.00,   0.00, 1009.4,    0.0, -999.0
14-11-2022, 00:26:28,    162,    0.0,    7.4,   0.00,   0.00, 1009.4,    0.0, -999.0
14-11-2022, 00:26:38,    162,    0.0,    7.4,   0.00,   0.00, 1009.4,    0.0, -999.0
14-11-2022, 00:26:48,    162,    0.0,    7.4,   0.00,   0.00, 1009.4,    0.0, -999.0
14-11-2022, 00:26:58,    162,    0.0,    7.3,   0.00,   0.00, 1009.4,    0.2, -999.0
14-11-2022, 00:27:08,    162,    0.0,    7.2,   0.00,   0.00, 1009.4,    0.1, -999.0
14-11-2022, 00:27:18,    162,    0.0,    7.2,   0.00,   0.00, 1009.4,    0.1, -999.0
14-11-2022, 00:27:28,    162,    0.0,    7.2,   0.00,   0.00, 1009.4,    0.1, -999.0
14-11-2022, 00:27:38,    162,    0.0,    7.1,   0.00,   0.00, 1009.4,    0.0, -999.0
14-11-2022, 00:27:48,    162,    0.0,    7.1,   0.00,   0.00, 1009.4,    0.1, -999.0
14-11-2022, 00:27:58,    162,    0.0,    7.0,   0.00,   0.00, 1009.4,    0.0, -999.0
14-11-2022, 00:28:08,    162,    0.0,    7.0,   0.00,   0.00, 1009.4,    0.1, -999.0
14-11-2022, 00:28:18,    162,    0.0,    6.9,   0.00,   0.00, 1009.4,    0.0, -999.0
14-11-2022, 00:28:28,    162,    0.0,    6.9,   0.00,   0.00, 1009.4,    0.0, -999.0
14-11-2022, 00:28:38,    161,    0.0,    6.9,   0.00,   0.00, 1009.4,    0.0, -999.0
14-11-2022, 00:28:48,    162,    0.0,    6.9,   0.00,   0.00, 1009.4,    0.0, -999.0
14-11-2022, 00:28:58,    162,    0.0,    6.9,   0.00,   0.00, 1009.4,    0.0, -999.0
14-11-2022, 00:29:08,    162,    0.0,    6.9,   0.00,   0.00, 1009.4,    0.0, -999.0
14-11-2022, 00:29:17,    162,    0.0,    6.9,   0.00,   0.00, 1009.4,    0.1, -999.0
14-11-2022, 00:29:28,    162,    0.0,    7.0,   0.00,   0.00, 1009.4,    0.0, -999.0
14-11-2022, 00:29:38,    162,    0.0,    6.9,   0.00,   0.00, 1009.4,    0.1, -999.0
14-11-2022, 00:29:48,    162,    0.0,    6.9,   0.00,   0.00, 1009.4,    0.0, -999.0
14-11-2022, 00:29:57,    162,    0.0,    6.9,   0.00,   0.00, 1009.4,    0.0, -999.0
14-11-2022, 00:30:08,    162,    0.0,    6.9,   0.00,   0.00, 1009.4,    0.1, -999.0
14-11-2022, 00:30:18,    162,    0.0,    6.9,   0.00,   0.00, 1009.4,    0.0, -999.0
14-11-2022, 00:30:27,    162,    0.0,    7.0,   0.00,   0.00, 1009.4,    0.0, -999.0
14-11-2022, 00:30:37,    162,    0.0,    6.9,   0.00,   0.00, 1009.4,    0.1, -999.0
14-11-2022, 00:30:48,    162,    0.0,    6.9,   0.00,   0.00, 1009.4,    0.0, -999.0
14-11-2022, 00:30:57,    162,    0.0,    6.9,   0.00,   0.00, 1009.4,    0.0, -999.0
14-11-2022, 00:31:07,    162,    0.0,    6.9,   0.00,   0.00, 1009.4,    0.0, -999.0
14-11-2022, 00:31:17,    162,    0.0,    6.9,   0.00,   0.00, 1009.4,    0.0, -999.0
14-11-2022, 00:31:27,    163,    0.0,    6.9,   0.00,   0.00, 1009.4,    0.0, -999.0
14-11-2022, 00:31:37,    162,    0.0,    6.9,   0.00,   0.00, 1009.5,    0.0, -999.0
14-11-2022, 00:31:47,    162,    0.0,    6.8,   0.00,   0.00, 1009.4,    0.0, -999.0
14-11-2022, 00:31:57,    162,    0.0,    6.8,   0.00,   0.00, 1009.4,    0.1, -999.0
14-11-2022, 00:32:07,    162,    0.0,    6.9,   0.00,   0.00, 1009.5,    0.0, -999.0
14-11-2022, 00:32:17,    162,    0.0,    6.9,   0.00,   0.00, 1009.4,    0.0, -999.0
14-11-2022, 00:32:27,    162,    0.0,    6.9,   0.00,   0.00, 1009.5,    0.0, -999.0
14-11-2022, 00:32:37,    161,    0.0,    6.9,   0.00,   0.00, 1009.4,    0.0, -999.0
14-11-2022, 00:32:47,    162,    0.0,    6.9,   0.00,   0.00, 1009.4,    0.0, -999.0
14-11-2022, 00:32:57,    162,    0.0,    6.9,   0.00,   0.00, 1009.4,    0.0, -999.0
14-11-2022, 00:33:07,    162,    0.0,    6.9,   0.00,   0.00, 1009.4,    0.0, -999.0
14-11-2022, 00:33:17,    162,    0.0,    6.9,   0.00,   0.00, 1009.4,    0.1, -999.0
14-11-2022, 00:33:27,    162,    0.0,    6.9,   0.00,   0.00, 1009.4,    0.1, -999.0
14-11-2022, 00:33:37,    162,    0.0,    6.9,   0.00,   0.00, 1009.4,    0.0, -999.0
14-11-2022, 00:33:47,    162,    0.0,    6.9,   0.00,   0.00, 1009.4,    0.0, -999.0
14-11-2022, 00:33:57,    162,    0.0,    7.0,   0.00,   0.00, 1009.4,    0.0, -999.0
14-11-2022, 00:34:07,    162,    0.0,    6.9,   0.00,   0.00, 1009.4,    0.0, -999.0
14-11-2022, 00:34:17,    162,    0.0,    7.0,   0.00,   0.00, 1009.4,    0.0, -999.0
14-11-2022, 00:34:27,    162,    0.0,    6.9,   0.00,   0.00, 1009.4,    0.0, -999.0
14-11-2022, 00:34:37,    162,    0.0,    6.9,   0.00,   0.00, 1009.4,    0.0, -999.0
14-11-2022, 00:34:47,    162,    0.0,    7.0,   0.00,   0.00, 1009.4,    0.0, -999.0
14-11-2022, 00:34:57,    162,    0.0,    6.9,   0.00,   0.00, 1009.4,    0.1, -999.0
14-11-2022, 00:35:06,    162,    0.0,    6.9,   0.00,   0.00, 1009.4,    0.0, -999.0
14-11-2022, 00:35:17,    162,    0.0,    7.0,   0.00,   0.00, 1009.4,    0.0, -999.0
14-11-2022, 00:35:27,    162,    0.0,    7.0,   0.00,   0.00, 1009.4,    0.0, -999.0
14-11-2022, 00:35:36,    162,    0.0,    7.0,   0.00,   0.00, 1009.4,    0.0, -999.0
14-11-2022, 00:35:46,    162,    0.0,    7.0,   0.00,   0.00, 1009.4,    0.0, -999.0
14-11-2022, 00:35:57,    162,    0.0,    7.0,   0.00,   0.00, 1009.4,    0.0, -999.0
14-11-2022, 00:36:06,    162,    0.0,    7.0,   0.00,   0.00, 1009.4,    0.1, -999.0
14-11-2022, 00:36:16,    162,    0.0,    7.1,   0.00,   0.00, 1009.4,    0.0, -999.0
14-11-2022, 00:36:27,    162,    0.0,    7.1,   0.00,   0.00, 1009.4,    0.2, -999.0
14-11-2022, 00:36:36,    162,    0.0,    7.1,   0.00,   0.00, 1009.4,    0.0, -999.0
14-11-2022, 00:36:46,    162,    0.0,    7.1,   0.00,   0.00, 1009.4,    0.0, -999.0
14-11-2022, 00:36:56,    162,    0.0,    7.1,   0.00,   0.00, 1009.4,    0.1, -999.0
14-11-2022, 00:37:06,    162,    0.0,    7.1,   0.00,   0.00, 1009.4,    0.1, -999.0
14-11-2022, 00:37:16,    162,    0.0,    7.1,   0.00,   0.00, 1009.4,    0.1, -999.0
14-11-2022, 00:37:26,    162,    0.0,    7.2,   0.00,   0.00, 1009.4,    0.0, -999.0
14-11-2022, 00:37:36,    163,    0.0,    7.2,   0.00,   0.00, 1009.4,    0.0, -999.0
14-11-2022, 00:37:46,    162,    0.0,    7.1,   0.00,   0.00, 1009.4,    0.0, -999.0
14-11-2022, 00:37:56,    162,    0.0,    7.2,   0.00,   0.00, 1009.4,    0.1, -999.0
14-11-2022, 00:38:06,    162,    0.0,    7.2,   0.00,   0.00, 1009.4,    0.0, -999.0
14-11-2022, 00:38:16,    161,    0.0,    7.2,   0.00,   0.00, 1009.4,    0.0, -999.0
14-11-2022, 00:38:26,    162,    0.0,    7.3,   0.00,   0.00, 1009.4,    0.0, -999.0
14-11-2022, 00:38:36,    162,    0.0,    7.4,   0.00,   0.00, 1009.4,    0.0, -999.0
14-11-2022, 00:38:46,    162,    0.0,    7.4,   0.00,   0.00, 1009.4,    0.0, -999.0
14-11-2022, 00:38:56,    162,    0.0,    7.4,   0.00,   0.00, 1009.4,    0.0, -999.0
14-11-2022, 00:39:06,    162,    0.0,    7.4,   0.00,   0.00, 1009.4,    0.0, -999.0
14-11-2022, 00:39:16,    162,    0.0,    7.4,   0.00,   0.00, 1009.4,    0.0, -999.0
14-11-2022, 00:39:26,    162,    0.0,    7.5,   0.00,   0.00, 1009.4,    0.0, -999.0
14-11-2022, 00:39:36,    162,    0.0,    7.5,   0.00,   0.00, 1009.4,    0.1, -999.0
14-11-2022, 00:39:46,    162,    0.0,    7.5,   0.00,   0.00, 1009.4,    0.1, -999.0
14-11-2022, 00:39:56,    162,    0.0,    7.6,   0.00,   0.00, 1009.4,    0.0, -999.0
14-11-2022, 00:40:06,    162,    0.0,    7.6,   0.00,   0.00, 1009.4,    0.1, -999.0
14-11-2022, 00:40:15,    162,    0.0,    7.7,   0.00,   0.00, 1009.4,    0.0, -999.0
14-11-2022, 00:40:26,    162,    0.0,    7.7,   0.00,   0.00, 1009.4,    0.0, -999.0
14-11-2022, 00:40:36,    162,    0.0,    7.8,   0.00,   0.00, 1009.4,    0.0, -999.0
14-11-2022, 00:40:45,    162,    0.0,    7.8,   0.00,   0.00, 1009.4,    0.0, -999.0
14-11-2022, 00:40:55,    162,    0.0,    7.9,   0.00,   0.00, 1009.4,    0.1, -999.0
14-11-2022, 00:41:06,    162,    0.0,    7.9,   0.00,   0.00, 1009.4,    0.0, -999.0
14-11-2022, 00:41:15,    162,    0.0,    7.9,   0.00,   0.00, 1009.4,    0.1, -999.0
14-11-2022, 00:41:25,    162,    0.0,    7.9,   0.00,   0.00, 1009.4,    0.2, -999.0
14-11-2022, 00:41:36,    162,    0.0,    7.9,   0.00,   0.00, 1009.4,    0.0, -999.0
14-11-2022, 00:41:45,    162,    0.0,    7.9,   0.00,   0.00, 1009.4,    0.0, -999.0
14-11-2022, 00:41:55,    162,    0.0,    7.9,   0.00,   0.00, 1009.4,    0.0, -999.0
14-11-2022, 00:42:05,    162,    0.0,    7.9,   0.00,   0.00, 1009.4,    0.1, -999.0
14-11-2022, 00:42:16,    162,    0.0,    7.8,   0.00,   0.00, 1009.4,    0.1, -999.0
14-11-2022, 00:42:25,    162,    0.0,    7.9,   0.00,   0.00, 1009.4,    0.0, -999.0
14-11-2022, 00:42:35,    162,    0.0,    8.0,   0.00,   0.00, 1009.4,    0.1, -999.0
14-11-2022, 00:42:45,    162,    0.0,    7.9,   0.00,   0.00, 1009.4,    0.0, -999.0
14-11-2022, 00:42:55,    162,    0.0,    7.9,   0.00,   0.00, 1009.4,    0.0, -999.0
14-11-2022, 00:43:05,    162,    0.0,    8.0,   0.00,   0.00, 1009.4,    0.0, -999.0
14-11-2022, 00:43:15,    162,    0.0,    8.0,   0.00,   0.00, 1009.4,    0.1, -999.0
14-11-2022, 00:43:25,    162,    0.0,    8.0,   0.00,   0.00, 1009.4,    0.0, -999.0
14-11-2022, 00:43:35,    162,    0.0,    8.0,   0.00,   0.00, 1009.4,    0.1, -999.0
14-11-2022, 00:43:45,    162,    0.0,    8.0,   0.00,   0.00, 1009.4,    0.1, -999.0
14-11-2022, 00:43:55,    162,    0.0,    7.9,   0.00,   0.00, 1009.4,    0.1, -999.0
14-11-2022, 00:44:05,    162,    0.0,    7.9,   0.00,   0.00, 1009.4,    0.1, -999.0
14-11-2022, 00:44:15,    162,    0.0,    7.9,   0.00,   0.00, 1009.4,    0.1, -999.0
14-11-2022, 00:44:25,    162,    0.0,    8.0,   0.00,   0.00, 1009.4,    0.0, -999.0
14-11-2022, 00:44:35,    162,    0.0,    8.1,   0.00,   0.00, 1009.4,    0.0, -999.0
14-11-2022, 00:44:45,    162,    0.0,    8.1,   0.00,   0.00, 1009.4,    0.0, -999.0
14-11-2022, 00:44:55,    162,    0.0,    8.0,   0.00,   0.00, 1009.4,    0.0, -999.0
14-11-2022, 00:45:05,    162,    0.0,    8.0,   0.00,   0.00, 1009.4,    0.0, -999.0
14-11-2022, 00:45:15,    162,    0.0,    7.9,   0.00,   0.00, 1009.4,    0.0, -999.0
14-11-2022, 00:45:24,    162,    0.0,    7.9,   0.00,   0.00, 1009.4,    0.0, -999.0
14-11-2022, 00:45:35,    162,    0.0,    8.0,   0.00,   0.00, 1009.4,    0.0, -999.0
14-11-2022, 00:45:46,    162,    0.0,    8.0,   0.00,   0.00, 1009.4,    0.0, -999.0
14-11-2022, 00:45:55,    162,    0.0,    8.0,   0.00,   0.00, 1009.4,    0.0, -999.0
14-11-2022, 00:46:04,    162,    0.0,    8.1,   0.00,   0.00, 1009.4,    0.0, -999.0
14-11-2022, 00:46:15,    162,    0.0,    8.0,   0.00,   0.00, 1009.4,    0.0, -999.0
14-11-2022, 00:46:25,    162,    0.0,    8.0,   0.00,   0.00, 1009.4,    0.0, -999.0
14-11-2022, 00:46:34,    162,    0.0,    8.2,   0.00,   0.00, 1009.4,    0.0, -999.0
14-11-2022, 00:46:44,    162,    0.0,    8.2,   0.00,   0.00, 1009.4,    0.1, -999.0